SVA144 OERK-LFPG

Flight info

Callsign SVA144
Flight time 6h 29m
Altitude 34000
Route IVONU Z710 GAS G662 NIMAR L550 NOVPA N697 MENLI L677 CVO L617 TANSA DCT LATAN/N0487F360 DCT CERVI DCT MOLUS DCT UNKIR DCT GIVRI DCT TINIL
Aircraft B77W/H-SDE1E2E3FGHIJ2J3J4J5M1RWXY/LB1D1

Departure

Time 2026-05-07 04:00
Airport King Khalid International Airport (OERK)

Arrival

Time 2026-05-07 10:30
Airport Charles de Gaulle International Airport (LFPG)
Time Latitude Longitude Altitude Speed Heading
2026-05-07 03:28 24.96204 46.70353 2034 ft 0 kts 236°
2026-05-07 03:47 24.96214 46.70370 2044 ft 4 kts 237°
2026-05-07 03:47 24.96229 46.70395 2040 ft 4 kts 237°
2026-05-07 03:47 24.96240 46.70414 2044 ft 4 kts 234°
2026-05-07 03:47 24.96257 46.70435 2044 ft 4 kts 199°
2026-05-07 03:48 24.96276 46.70432 2044 ft 4 kts 150°
2026-05-07 03:48 24.96299 46.70418 2044 ft 3 kts 150°
2026-05-07 03:48 24.96290 46.70424 2044 ft 4 kts 150°
2026-05-07 03:48 24.96266 46.70438 2044 ft 4 kts 150°
2026-05-07 03:49 24.96243 46.70453 2044 ft 4 kts 150°
2026-05-07 03:49 24.96219 46.70468 2044 ft 4 kts 150°
2026-05-07 03:49 24.96208 46.70475 2044 ft 0 kts 150°
2026-05-07 03:52 24.96173 46.70497 2038 ft 15 kts 150°
2026-05-07 03:53 24.96078 46.70557 2044 ft 15 kts 150°
2026-05-07 03:53 24.95986 46.70616 2042 ft 15 kts 149°
2026-05-07 03:53 24.95896 46.70673 2039 ft 15 kts 152°
2026-05-07 03:53 24.95854 46.70742 2042 ft 11 kts 85°
2026-05-07 03:54 24.95864 46.70772 2043 ft 3 kts 65°
2026-05-07 03:54 24.95897 46.70837 2044 ft 17 kts 58°
2026-05-07 03:54 24.95928 46.70965 2040 ft 16 kts 127°
2026-05-07 03:54 24.95838 46.71031 2044 ft 16 kts 148°
2026-05-07 03:55 24.95741 46.71092 2045 ft 16 kts 151°
2026-05-07 03:55 24.95644 46.71154 2045 ft 16 kts 151°
2026-05-07 03:55 24.95546 46.71213 2041 ft 16 kts 150°
2026-05-07 03:55 24.95448 46.71273 2044 ft 16 kts 150°
2026-05-07 03:56 24.95351 46.71334 2044 ft 16 kts 150°
2026-05-07 03:56 24.95254 46.71396 2044 ft 16 kts 150°
2026-05-07 03:56 24.95152 46.71461 2040 ft 23 kts 150°
2026-05-07 03:56 24.94996 46.71560 2041 ft 26 kts 150°
2026-05-07 03:57 24.94841 46.71658 2044 ft 26 kts 150°
2026-05-07 03:57 24.94684 46.71758 2046 ft 26 kts 150°
2026-05-07 03:57 24.94540 46.71848 2045 ft 23 kts 150°
2026-05-07 03:57 24.94416 46.71927 2042 ft 18 kts 150°
2026-05-07 03:58 24.94316 46.71997 2043 ft 15 kts 130°
2026-05-07 03:58 24.94320 46.72088 2044 ft 11 kts 66°
2026-05-07 03:58 24.94357 46.72163 2044 ft 11 kts 59°
2026-05-07 03:58 24.94401 46.72233 2047 ft 11 kts 42°
2026-05-07 03:59 24.94471 46.72232 2041 ft 9 kts 335°
2026-05-07 03:59 24.94485 46.72224 2045 ft 0 kts 333°
2026-05-07 03:59 24.94567 46.72174 2044 ft 38 kts 330°
2026-05-07 04:00 24.95024 46.71885 2044 ft 111 kts 330°
2026-05-07 04:00 24.95870 46.71351 2045 ft 169 kts 331°
2026-05-07 04:00 24.96609 46.70917 2162 ft 187 kts 333°
2026-05-07 04:00 24.97812 46.70242 2650 ft 196 kts 336°
2026-05-07 04:01 24.99093 46.69747 3345 ft 196 kts 344°
2026-05-07 04:01 25.00415 46.69211 3847 ft 209 kts 340°
2026-05-07 04:01 25.01807 46.68609 4387 ft 221 kts 339°
2026-05-07 04:01 25.03321 46.67981 4751 ft 242 kts 339°
2026-05-07 04:02 25.04943 46.67337 5382 ft 254 kts 338°
2026-05-07 04:02 25.06632 46.66586 5838 ft 268 kts 328°
2026-05-07 04:02 25.08014 46.65210 6509 ft 271 kts 301°
2026-05-07 04:02 25.08745 46.63297 7191 ft 274 kts 282°
2026-05-07 04:03 25.08898 46.61201 7723 ft 278 kts 258°
2026-05-07 04:03 25.08439 46.59174 8442 ft 276 kts 253°
2026-05-07 04:03 25.07994 46.57098 8941 ft 279 kts 256°
2026-05-07 04:03 25.07620 46.54936 9009 ft 287 kts 260°
2026-05-07 04:04 25.07489 46.52756 9014 ft 289 kts 266°
2026-05-07 04:04 25.07475 46.50550 9012 ft 285 kts 267°
2026-05-07 04:04 25.07471 46.48370 9011 ft 283 kts 267°
2026-05-07 04:04 25.07455 46.46198 9014 ft 283 kts 266°
2026-05-07 04:05 25.07426 46.44020 9015 ft 284 kts 266°
2026-05-07 04:05 25.07390 46.41833 9013 ft 285 kts 266°
2026-05-07 04:05 25.07349 46.39671 9014 ft 286 kts 266°
2026-05-07 04:05 25.07305 46.37478 9013 ft 286 kts 266°
2026-05-07 04:06 25.07258 46.35282 9005 ft 287 kts 265°
2026-05-07 04:06 25.07211 46.33084 9041 ft 284 kts 265°
2026-05-07 04:06 25.07165 46.30908 9366 ft 283 kts 265°
2026-05-07 04:06 25.07116 46.28729 10138 ft 285 kts 265°
2026-05-07 04:07 25.07062 46.26506 10630 ft 300 kts 265°
2026-05-07 04:07 25.07001 46.24104 10816 ft 326 kts 265°
2026-05-07 04:07 25.06935 46.21505 11000 ft 351 kts 265°
2026-05-07 04:07 25.06867 46.18739 11446 ft 366 kts 265°
2026-05-07 04:08 25.06803 46.15891 12099 ft 377 kts 265°
2026-05-07 04:08 25.06737 46.12977 12915 ft 382 kts 265°
2026-05-07 04:08 25.06671 46.10076 13879 ft 384 kts 265°
2026-05-07 04:08 25.06601 46.07083 14747 ft 386 kts 266°
2026-05-07 04:09 25.06532 46.04148 15581 ft 390 kts 266°
2026-05-07 04:09 25.06459 46.01149 16441 ft 393 kts 266°
2026-05-07 04:09 25.06386 45.98126 17295 ft 396 kts 267°
2026-05-07 04:09 25.06311 45.95079 18149 ft 400 kts 267°
2026-05-07 04:10 25.06235 45.91997 18845 ft 404 kts 267°
2026-05-07 04:10 25.06156 45.88882 19551 ft 408 kts 266°
2026-05-07 04:10 25.06076 45.85742 20281 ft 411 kts 266°
2026-05-07 04:10 25.05994 45.82580 20988 ft 414 kts 266°
2026-05-07 04:11 25.05912 45.79382 21694 ft 418 kts 265°
2026-05-07 04:11 25.05829 45.76169 22362 ft 421 kts 265°
2026-05-07 04:11 25.05743 45.72924 23010 ft 425 kts 265°
2026-05-07 04:11 25.05670 45.69653 23613 ft 427 kts 267°
2026-05-07 04:12 25.06077 45.66366 24028 ft 441 kts 283°
2026-05-07 04:12 25.07287 45.63243 24525 ft 446 kts 292°
2026-05-07 04:12 25.08693 45.60168 25027 ft 449 kts 292°
2026-05-07 04:12 25.10075 45.57121 25564 ft 452 kts 292°
2026-05-07 04:13 25.11470 45.54010 26124 ft 453 kts 291°
2026-05-07 04:13 25.12859 45.50876 26652 ft 455 kts 291°
2026-05-07 04:13 25.14245 45.47725 27160 ft 458 kts 291°
2026-05-07 04:13 25.15633 45.44549 27654 ft 461 kts 291°
2026-05-07 04:14 25.17026 45.41353 28118 ft 463 kts 291°
2026-05-07 04:14 25.18423 45.38142 28604 ft 465 kts 290°
2026-05-07 04:14 25.19827 45.34913 29037 ft 468 kts 290°
2026-05-07 04:14 25.21238 45.31664 29429 ft 471 kts 290°
2026-05-07 04:15 25.22659 45.28393 29809 ft 473 kts 290°
2026-05-07 04:15 25.24090 45.25092 29923 ft 479 kts 290°
2026-05-07 04:15 25.25530 45.21771 29988 ft 478 kts 290°
2026-05-07 04:16 25.28393 45.15177 29976 ft 473 kts 290°
2026-05-07 04:16 25.31231 45.08621 29991 ft 473 kts 290°
2026-05-07 04:17 25.34047 45.02098 29981 ft 473 kts 290°
2026-05-07 04:17 25.36880 44.95529 29978 ft 473 kts 290°
2026-05-07 04:18 25.39710 44.88961 29979 ft 473 kts 290°
2026-05-07 04:18 25.42538 44.82384 29977 ft 473 kts 290°
2026-05-07 04:19 25.45361 44.75809 29977 ft 473 kts 290°
2026-05-07 04:19 25.48184 44.69226 29978 ft 473 kts 290°
2026-05-07 04:20 25.51018 44.62646 29979 ft 474 kts 291°
2026-05-07 04:20 25.54658 44.56523 29971 ft 484 kts 302°
2026-05-07 04:21 25.61812 44.48486 29961 ft 491 kts 311°
2026-05-07 04:21 25.66860 44.43380 29985 ft 491 kts 311°
2026-05-07 04:22 25.71888 44.38241 29975 ft 492 kts 311°
2026-05-07 04:22 25.76907 44.33060 29972 ft 493 kts 311°
2026-05-07 04:23 25.81943 44.27842 30125 ft 498 kts 311°
2026-05-07 04:23 25.84474 44.25219 30567 ft 496 kts 310°
2026-05-07 04:23 25.86984 44.22622 31160 ft 490 kts 310°
2026-05-07 04:24 25.89441 44.20078 31666 ft 487 kts 310°
2026-05-07 04:24 25.91910 44.17520 32182 ft 484 kts 310°
2026-05-07 04:24 25.94367 44.14970 32666 ft 481 kts 309°
2026-05-07 04:24 25.96808 44.12434 33142 ft 479 kts 309°
2026-05-07 04:25 25.99240 44.09905 33584 ft 478 kts 309°
2026-05-07 04:25 26.01663 44.07384 34017 ft 476 kts 309°
2026-05-07 04:25 26.04073 44.04874 34388 ft 474 kts 308°
2026-05-07 04:25 26.06479 44.02369 34754 ft 473 kts 308°
2026-05-07 04:26 26.08888 43.99856 34947 ft 476 kts 308°
2026-05-07 04:26 26.11301 43.97338 35263 ft 475 kts 308°
2026-05-07 04:26 26.13710 43.94827 35684 ft 472 kts 308°
2026-05-07 04:26 26.16100 43.92336 36012 ft 471 kts 308°
2026-05-07 04:27 26.20863 43.87354 35991 ft 472 kts 308°
2026-05-07 04:27 26.25632 43.82370 35996 ft 468 kts 308°
2026-05-07 04:28 26.30051 43.77157 35998 ft 457 kts 300°
2026-05-07 04:28 26.33536 43.71334 36000 ft 449 kts 293°
2026-05-07 04:29 26.36768 43.65351 35998 ft 451 kts 293°
2026-05-07 04:29 26.40028 43.59351 35996 ft 453 kts 293°
2026-05-07 04:30 26.43312 43.53337 35997 ft 455 kts 293°
2026-05-07 04:30 26.46613 43.47296 36000 ft 456 kts 294°
2026-05-07 04:31 26.49911 43.41251 36016 ft 456 kts 294°
2026-05-07 04:31 26.53209 43.35196 36003 ft 457 kts 294°
2026-05-07 04:32 26.56489 43.29167 36012 ft 457 kts 294°
2026-05-07 04:32 26.59784 43.23100 36013 ft 456 kts 294°
2026-05-07 04:33 26.63081 43.17023 36022 ft 456 kts 293°
2026-05-07 04:33 26.66370 43.10958 36018 ft 456 kts 294°
2026-05-07 04:34 26.69662 43.04895 36028 ft 456 kts 294°
2026-05-07 04:34 26.72951 42.98831 36047 ft 454 kts 294°
2026-05-07 04:35 26.76200 42.92833 36031 ft 453 kts 293°
2026-05-07 04:35 26.79453 42.86815 36034 ft 451 kts 293°
2026-05-07 04:36 26.82690 42.80818 36040 ft 450 kts 293°
2026-05-07 04:36 26.85919 42.74826 36048 ft 449 kts 293°
2026-05-07 04:37 26.89143 42.68837 36047 ft 449 kts 293°
2026-05-07 04:37 26.92367 42.62838 36050 ft 449 kts 293°
2026-05-07 04:38 26.95595 42.56825 36061 ft 450 kts 293°
2026-05-07 04:38 26.98818 42.50812 36062 ft 450 kts 293°
2026-05-07 04:39 27.02038 42.44798 36065 ft 449 kts 293°
2026-05-07 04:39 27.05230 42.38828 36070 ft 449 kts 293°
2026-05-07 04:40 27.08443 42.32812 36065 ft 448 kts 293°
2026-05-07 04:40 27.11638 42.26807 36065 ft 448 kts 292°
2026-05-07 04:41 27.14829 42.20795 36067 ft 448 kts 292°
2026-05-07 04:41 27.18017 42.14777 36077 ft 448 kts 292°
2026-05-07 04:42 27.21204 42.08756 36070 ft 447 kts 292°
2026-05-07 04:42 27.24377 42.02752 36073 ft 447 kts 292°
2026-05-07 04:43 27.27547 41.96746 36099 ft 447 kts 292°
2026-05-07 04:43 27.30703 41.90757 36078 ft 448 kts 292°
2026-05-07 04:44 27.33882 41.84718 36072 ft 448 kts 292°
2026-05-07 04:44 27.37056 41.78679 36072 ft 448 kts 292°
2026-05-07 04:45 27.40235 41.72633 36080 ft 450 kts 293°
2026-05-07 04:45 27.44041 41.66905 36080 ft 462 kts 302°
2026-05-07 04:46 27.48676 41.61789 36081 ft 470 kts 308°
2026-05-07 04:46 27.53489 41.56889 36076 ft 470 kts 309°
2026-05-07 04:47 27.58325 41.51928 36083 ft 470 kts 308°
2026-05-07 04:47 27.63149 41.46936 36075 ft 471 kts 308°
2026-05-07 04:48 27.67969 41.41931 36064 ft 470 kts 308°
2026-05-07 04:48 27.72781 41.36929 36062 ft 471 kts 308°
2026-05-07 04:49 27.76783 41.32763 36060 ft 470 kts 308°
2026-05-07 04:49 27.81589 41.27756 36055 ft 470 kts 308°
2026-05-07 04:50 27.86397 41.22738 36047 ft 469 kts 308°
2026-05-07 04:50 27.91162 41.17761 36050 ft 469 kts 308°
2026-05-07 04:51 27.95970 41.12740 36070 ft 469 kts 308°
2026-05-07 04:51 28.00770 41.07725 36060 ft 469 kts 308°
2026-05-07 04:52 28.05569 41.02705 36062 ft 469 kts 308°
2026-05-07 04:52 28.10339 40.97709 36062 ft 470 kts 308°
2026-05-07 04:53 28.15136 40.92674 36061 ft 470 kts 308°
2026-05-07 04:53 28.19933 40.87633 36069 ft 470 kts 307°
2026-05-07 04:54 28.24734 40.82584 36064 ft 470 kts 307°
2026-05-07 04:54 28.29528 40.77536 36063 ft 470 kts 307°
2026-05-07 04:55 28.34319 40.72484 36067 ft 470 kts 307°
2026-05-07 04:55 28.39102 40.67430 36074 ft 469 kts 307°
2026-05-07 04:56 28.43885 40.62374 36086 ft 469 kts 307°
2026-05-07 04:56 28.48631 40.57349 36077 ft 470 kts 307°
2026-05-07 04:57 28.53412 40.52282 36078 ft 469 kts 307°
2026-05-07 04:57 28.58190 40.47210 36093 ft 469 kts 307°
2026-05-07 04:58 28.62958 40.42142 36089 ft 469 kts 307°
2026-05-07 04:58 28.67728 40.37065 36078 ft 469 kts 307°
2026-05-07 04:59 28.72485 40.31995 36079 ft 468 kts 307°
2026-05-07 04:59 28.77236 40.26926 36078 ft 468 kts 307°
2026-05-07 05:00 28.81986 40.21851 36090 ft 468 kts 307°
2026-05-07 05:00 28.86700 40.16806 36087 ft 468 kts 307°
2026-05-07 05:01 28.91448 40.11720 36078 ft 468 kts 307°
2026-05-07 05:01 28.96192 40.06631 36079 ft 468 kts 307°
2026-05-07 05:02 29.00943 40.01527 36098 ft 468 kts 307°
2026-05-07 05:02 29.05659 39.96455 36087 ft 468 kts 307°
2026-05-07 05:03 29.09650 39.90879 36083 ft 438 kts 286°
2026-05-07 05:03 29.11146 39.84295 36083 ft 422 kts 266°
2026-05-07 05:04 29.11141 39.77559 36092 ft 427 kts 264°
2026-05-07 05:04 29.11097 39.70741 36093 ft 430 kts 264°
2026-05-07 05:05 29.11094 39.63938 36070 ft 423 kts 264°
2026-05-07 05:05 29.11110 39.57240 36094 ft 420 kts 264°
2026-05-07 05:06 29.11123 39.50550 36079 ft 421 kts 264°
2026-05-07 05:06 29.11133 39.43892 36077 ft 422 kts 264°
2026-05-07 05:07 29.11139 39.37171 36076 ft 423 kts 264°
2026-05-07 05:07 29.11142 39.30436 36062 ft 424 kts 264°
2026-05-07 05:08 29.11142 39.23687 36070 ft 425 kts 264°
2026-05-07 05:08 29.11138 39.16911 36069 ft 426 kts 264°
2026-05-07 05:09 29.11132 39.10134 36082 ft 426 kts 264°
2026-05-07 05:09 29.11122 39.03387 36068 ft 427 kts 264°
2026-05-07 05:10 29.11109 38.96585 36073 ft 427 kts 264°
2026-05-07 05:10 29.11090 38.89797 36069 ft 427 kts 264°
2026-05-07 05:11 29.11062 38.82997 36077 ft 427 kts 264°
2026-05-07 05:11 29.11032 38.76187 36075 ft 428 kts 264°
2026-05-07 05:12 29.10999 38.69428 36076 ft 428 kts 264°
2026-05-07 05:12 29.10962 38.62626 36082 ft 428 kts 264°
2026-05-07 05:13 29.10922 38.55816 36073 ft 428 kts 264°
2026-05-07 05:13 29.10879 38.49008 36078 ft 428 kts 264°
2026-05-07 05:14 29.10833 38.42192 36077 ft 429 kts 264°
2026-05-07 05:14 29.10781 38.35363 36075 ft 429 kts 264°
2026-05-07 05:15 29.10722 38.28587 36076 ft 429 kts 264°
2026-05-07 05:15 29.10657 38.21761 36073 ft 429 kts 264°
2026-05-07 05:16 29.10591 38.14937 36077 ft 429 kts 264°
2026-05-07 05:16 29.10521 38.08109 36073 ft 430 kts 264°
2026-05-07 05:17 29.10447 38.01274 36045 ft 430 kts 263°
2026-05-07 05:17 29.10371 37.94442 36074 ft 429 kts 263°
2026-05-07 05:18 29.10290 37.87650 36068 ft 430 kts 263°
2026-05-07 05:18 29.10206 37.80806 36065 ft 430 kts 263°
2026-05-07 05:19 29.10119 37.73963 36061 ft 430 kts 263°
2026-05-07 05:19 29.10028 37.67106 36064 ft 431 kts 263°
2026-05-07 05:20 29.09934 37.60234 36058 ft 432 kts 263°
2026-05-07 05:20 29.09836 37.53405 36054 ft 432 kts 263°
2026-05-07 05:21 29.09734 37.43088 36064 ft 433 kts 264°
2026-05-07 05:22 29.09697 37.36177 36054 ft 434 kts 264°
2026-05-07 05:22 29.09653 37.29275 36046 ft 434 kts 264°
2026-05-07 05:23 29.09600 37.22376 36065 ft 433 kts 264°
2026-05-07 05:23 29.09544 37.15540 36048 ft 434 kts 264°
2026-05-07 05:24 29.09483 37.08644 36041 ft 434 kts 264°
2026-05-07 05:24 29.09418 37.01733 36037 ft 434 kts 264°
2026-05-07 05:25 29.09350 36.94816 36044 ft 435 kts 264°
2026-05-07 05:25 29.09278 36.87883 36038 ft 436 kts 264°
2026-05-07 05:26 29.09203 36.80947 36030 ft 437 kts 264°
2026-05-07 05:26 29.09124 36.74005 36055 ft 437 kts 264°
2026-05-07 05:27 29.09042 36.67086 36037 ft 439 kts 264°
2026-05-07 05:27 29.08956 36.60101 36028 ft 439 kts 264°
2026-05-07 05:28 29.08868 36.53165 36032 ft 439 kts 264°
2026-05-07 05:28 29.08767 36.46183 36046 ft 439 kts 264°
2026-05-07 05:29 29.08584 36.39196 36041 ft 439 kts 263°
2026-05-07 05:29 29.08378 36.32209 36044 ft 439 kts 263°
2026-05-07 05:30 29.08178 36.25265 36051 ft 440 kts 263°
2026-05-07 05:30 29.07978 36.18266 36058 ft 441 kts 263°
2026-05-07 05:31 29.07776 36.11258 36056 ft 442 kts 263°
2026-05-07 05:31 29.07570 36.04233 36051 ft 442 kts 263°
2026-05-07 05:32 29.07360 35.97211 36051 ft 442 kts 263°
2026-05-07 05:32 29.07147 35.90181 36043 ft 442 kts 263°
2026-05-07 05:33 29.06932 35.83205 36041 ft 441 kts 263°
2026-05-07 05:33 29.06711 35.76207 36053 ft 440 kts 263°
2026-05-07 05:34 29.06488 35.69205 36060 ft 441 kts 263°
2026-05-07 05:34 29.06261 35.62219 36053 ft 441 kts 263°
2026-05-07 05:35 29.06030 35.55236 36046 ft 441 kts 263°
2026-05-07 05:35 29.05795 35.48227 36060 ft 441 kts 263°
2026-05-07 05:36 29.05556 35.41209 36034 ft 443 kts 263°
2026-05-07 05:36 29.05354 35.35354 36033 ft 443 kts 263°
2026-05-07 05:37 29.05065 35.27151 36017 ft 444 kts 263°
2026-05-07 05:37 29.04858 35.21303 36029 ft 443 kts 264°
2026-05-07 05:38 29.04605 35.14262 36027 ft 443 kts 263°
2026-05-07 05:38 29.04348 35.07211 36017 ft 444 kts 263°
2026-05-07 05:39 29.04086 35.00170 36021 ft 444 kts 263°
2026-05-07 05:39 29.03821 34.93109 36014 ft 446 kts 264°
2026-05-07 05:40 29.03551 34.86017 36019 ft 447 kts 264°
2026-05-07 05:40 29.03353 34.78901 36011 ft 448 kts 265°
2026-05-07 05:41 29.03275 34.71825 36019 ft 450 kts 269°
2026-05-07 05:41 29.04120 34.64699 36029 ft 455 kts 277°
2026-05-07 05:42 29.05876 34.57689 36037 ft 461 kts 284°
2026-05-07 05:42 29.07959 34.50741 36047 ft 462 kts 284°
2026-05-07 05:43 29.10024 34.43827 36051 ft 462 kts 285°
2026-05-07 05:43 29.12074 34.36852 36061 ft 463 kts 285°
2026-05-07 05:44 29.14113 34.29861 36065 ft 464 kts 285°
2026-05-07 05:44 29.16148 34.22864 36063 ft 463 kts 285°
2026-05-07 05:45 29.18184 34.15857 36155 ft 466 kts 285°
2026-05-07 05:45 29.19206 34.12333 36458 ft 465 kts 285°
2026-05-07 05:45 29.20220 34.08834 36876 ft 462 kts 285°
2026-05-07 05:45 29.21230 34.05346 37297 ft 459 kts 284°
2026-05-07 05:46 29.22231 34.01882 37685 ft 457 kts 284°
2026-05-07 05:46 29.23227 33.98435 37995 ft 456 kts 284°
2026-05-07 05:46 29.24224 33.94974 38029 ft 459 kts 284°
2026-05-07 05:47 29.26227 33.88017 38070 ft 460 kts 284°
2026-05-07 05:47 29.28223 33.81088 38076 ft 457 kts 284°
2026-05-07 05:48 29.30206 33.74184 38090 ft 455 kts 284°
2026-05-07 05:48 29.32160 33.67363 38097 ft 454 kts 285°
2026-05-07 05:49 29.34130 33.60466 38092 ft 455 kts 285°
2026-05-07 05:49 29.36101 33.53553 38093 ft 456 kts 285°
2026-05-07 05:50 29.38073 33.46622 38089 ft 458 kts 285°
2026-05-07 05:50 29.40046 33.39673 38096 ft 459 kts 285°
2026-05-07 05:51 29.42020 33.32705 38095 ft 460 kts 285°
2026-05-07 05:51 29.43993 33.25722 38093 ft 460 kts 285°
2026-05-07 05:52 29.45968 33.18722 38090 ft 461 kts 285°
2026-05-07 05:52 29.47926 33.11762 38101 ft 461 kts 285°
2026-05-07 05:53 29.49896 33.04747 38088 ft 461 kts 285°
2026-05-07 05:53 29.51858 32.97743 38089 ft 460 kts 285°
2026-05-07 05:54 29.53816 32.90738 38082 ft 460 kts 285°
2026-05-07 05:54 29.55763 32.83751 38077 ft 459 kts 285°
2026-05-07 05:55 29.57697 32.76801 38096 ft 459 kts 285°
2026-05-07 05:55 29.59635 32.69822 38094 ft 458 kts 285°
2026-05-07 05:56 29.61356 32.62782 38078 ft 457 kts 283°
2026-05-07 05:56 29.62931 32.55708 38091 ft 457 kts 283°
2026-05-07 05:57 29.64508 32.48629 38087 ft 457 kts 283°
2026-05-07 05:57 29.66095 32.41567 38085 ft 457 kts 283°
2026-05-07 05:58 29.67685 32.34498 38105 ft 457 kts 283°
2026-05-07 05:58 29.69276 32.27410 38084 ft 458 kts 283°
2026-05-07 05:59 29.70852 32.20364 38097 ft 458 kts 283°
2026-05-07 05:59 29.72438 32.13250 38091 ft 459 kts 283°
2026-05-07 06:00 29.74022 32.06131 38098 ft 459 kts 283°
2026-05-07 06:00 29.75601 31.99013 38099 ft 459 kts 283°
2026-05-07 06:01 29.77184 31.91946 38097 ft 459 kts 286°
2026-05-07 06:01 29.79674 31.85181 38098 ft 460 kts 297°
2026-05-07 06:02 29.83190 31.79038 38110 ft 461 kts 305°
2026-05-07 06:02 29.87091 31.73132 38095 ft 461 kts 305°
2026-05-07 06:03 29.90903 31.67244 38099 ft 461 kts 305°
2026-05-07 06:03 29.94718 31.61311 38098 ft 460 kts 305°
2026-05-07 06:04 29.98493 31.55459 38120 ft 460 kts 305°
2026-05-07 06:04 30.02309 31.49533 38137 ft 459 kts 305°
2026-05-07 06:05 30.06107 31.43623 38132 ft 459 kts 305°
2026-05-07 06:05 30.10076 31.37857 38131 ft 459 kts 311°
2026-05-07 06:06 30.14720 31.32783 38131 ft 460 kts 316°
2026-05-07 06:06 30.19391 31.27844 38128 ft 459 kts 315°
2026-05-07 06:07 30.24089 31.22835 38098 ft 459 kts 315°
2026-05-07 06:07 30.28763 31.17816 38083 ft 458 kts 315°
2026-05-07 06:08 30.33434 31.12784 38089 ft 458 kts 315°
2026-05-07 06:08 30.38094 31.07757 38088 ft 457 kts 315°
2026-05-07 06:09 30.42748 31.02729 38088 ft 457 kts 315°
2026-05-07 06:09 30.47375 30.97727 38091 ft 457 kts 315°
2026-05-07 06:10 30.52020 30.92696 38098 ft 457 kts 315°
2026-05-07 06:10 30.56669 30.87656 38092 ft 457 kts 315°
2026-05-07 06:11 30.61309 30.82618 38095 ft 456 kts 315°
2026-05-07 06:11 30.65943 30.77578 38095 ft 456 kts 315°
2026-05-07 06:12 30.70578 30.72532 38103 ft 456 kts 315°
2026-05-07 06:12 30.75203 30.67490 38103 ft 456 kts 315°
2026-05-07 06:13 30.79799 30.62471 38102 ft 456 kts 315°
2026-05-07 06:13 30.84421 30.57417 38109 ft 456 kts 315°
2026-05-07 06:14 30.89047 30.52353 38105 ft 456 kts 315°
2026-05-07 06:14 30.93666 30.47288 38106 ft 456 kts 315°
2026-05-07 06:15 30.98291 30.42209 38110 ft 456 kts 315°
2026-05-07 06:15 31.02908 30.37131 38119 ft 456 kts 315°
2026-05-07 06:16 31.07322 30.31855 38107 ft 454 kts 306°
2026-05-07 06:16 31.10499 30.25511 38120 ft 453 kts 293°
2026-05-07 06:17 31.12474 30.18578 38111 ft 453 kts 287°
2026-05-07 06:17 31.14336 30.11496 38115 ft 453 kts 288°
2026-05-07 06:18 31.16231 30.04524 38114 ft 454 kts 289°
2026-05-07 06:18 31.18312 29.97526 38132 ft 453 kts 295°
2026-05-07 06:19 31.21284 29.91061 38133 ft 452 kts 303°
2026-05-07 06:19 31.24937 29.85139 38137 ft 452 kts 306°
2026-05-07 06:20 31.28686 29.79228 38140 ft 452 kts 306°
2026-05-07 06:20 31.32386 29.73336 38131 ft 451 kts 306°
2026-05-07 06:21 31.36081 29.67403 38128 ft 451 kts 306°
2026-05-07 06:21 31.39765 29.61470 38128 ft 450 kts 306°
2026-05-07 06:22 31.43421 29.55573 38129 ft 450 kts 306°
2026-05-07 06:22 31.48926 29.46681 38131 ft 449 kts 306°
2026-05-07 06:23 31.52583 29.40761 38141 ft 448 kts 306°
2026-05-07 06:23 31.56234 29.34843 38139 ft 447 kts 306°
2026-05-07 06:24 31.59263 29.29926 38139 ft 447 kts 306°
2026-05-07 06:24 31.62890 29.23986 38135 ft 447 kts 306°
2026-05-07 06:25 31.66500 29.18056 38143 ft 446 kts 306°
2026-05-07 06:25 31.70084 29.12166 38168 ft 445 kts 306°
2026-05-07 06:26 31.74017 29.06560 38159 ft 444 kts 314°
2026-05-07 06:26 31.78642 29.01769 38160 ft 443 kts 320°
2026-05-07 06:27 31.83436 28.97205 38160 ft 443 kts 321°
2026-05-07 06:27 31.88223 28.92632 38160 ft 442 kts 321°
2026-05-07 06:28 31.92988 28.88046 38159 ft 441 kts 321°
2026-05-07 06:28 31.97699 28.83494 38159 ft 441 kts 321°
2026-05-07 06:29 32.02435 28.78908 38169 ft 440 kts 320°
2026-05-07 06:29 32.07162 28.74324 38155 ft 440 kts 320°
2026-05-07 06:30 32.11891 28.69734 38161 ft 439 kts 320°
2026-05-07 06:30 32.16604 28.65152 38159 ft 439 kts 321°
2026-05-07 06:31 32.21311 28.60571 38157 ft 437 kts 321°
2026-05-07 06:31 32.25975 28.56024 38156 ft 437 kts 321°
2026-05-07 06:32 32.30651 28.51460 38154 ft 436 kts 321°
2026-05-07 06:32 32.35326 28.46891 38169 ft 435 kts 321°
2026-05-07 06:33 32.39993 28.42322 38159 ft 435 kts 321°
2026-05-07 06:33 32.44654 28.37753 38164 ft 435 kts 321°
2026-05-07 06:34 32.49300 28.33193 38156 ft 433 kts 321°
2026-05-07 06:34 32.53932 28.28640 38151 ft 431 kts 321°
2026-05-07 06:35 32.58523 28.24122 38156 ft 430 kts 321°
2026-05-07 06:35 32.63123 28.19588 38159 ft 429 kts 321°
2026-05-07 06:36 32.67712 28.15059 38157 ft 429 kts 321°
2026-05-07 06:36 32.72298 28.10526 38163 ft 429 kts 321°
2026-05-07 06:37 32.76887 28.05984 38162 ft 429 kts 322°
2026-05-07 06:37 32.81449 28.01463 38158 ft 425 kts 321°
2026-05-07 06:38 32.85954 27.96991 38154 ft 422 kts 322°
2026-05-07 06:38 32.90449 27.92525 38158 ft 420 kts 321°
2026-05-07 06:39 32.94920 27.88075 38176 ft 418 kts 321°
2026-05-07 06:39 32.99384 27.83627 38165 ft 417 kts 321°
2026-05-07 06:40 33.03836 27.79185 38165 ft 417 kts 321°
2026-05-07 06:40 33.08288 27.74737 38167 ft 418 kts 321°
2026-05-07 06:41 33.12744 27.70278 38163 ft 418 kts 321°
2026-05-07 06:41 33.17209 27.65804 38156 ft 419 kts 321°
2026-05-07 06:42 33.21674 27.61324 38162 ft 420 kts 321°
2026-05-07 06:42 33.26146 27.56831 38159 ft 420 kts 321°
2026-05-07 06:43 33.30616 27.52333 38169 ft 420 kts 321°
2026-05-07 06:43 33.35055 27.47860 38159 ft 419 kts 321°
2026-05-07 06:44 33.39495 27.43380 38161 ft 414 kts 321°
2026-05-07 06:44 33.43878 27.38951 38159 ft 410 kts 321°
2026-05-07 06:45 33.48215 27.34563 38156 ft 406 kts 321°
2026-05-07 06:45 33.52523 27.30199 38160 ft 404 kts 321°
2026-05-07 06:46 33.56789 27.25872 38161 ft 404 kts 321°
2026-05-07 06:46 33.61094 27.21500 38163 ft 406 kts 321°
2026-05-07 06:47 33.65413 27.17107 38152 ft 408 kts 321°
2026-05-07 06:47 33.69734 27.12705 38159 ft 407 kts 321°
2026-05-07 06:48 33.74040 27.08312 38162 ft 405 kts 321°
2026-05-07 06:48 33.78326 27.03934 38159 ft 403 kts 321°
2026-05-07 06:49 33.82602 26.99561 38162 ft 402 kts 321°
2026-05-07 06:49 33.86831 26.95229 38163 ft 401 kts 321°
2026-05-07 06:50 33.91080 26.90871 38174 ft 401 kts 321°
2026-05-07 06:50 33.95328 26.86508 38148 ft 401 kts 321°
2026-05-07 06:51 33.99545 26.82132 38159 ft 399 kts 319°
2026-05-07 06:51 34.03381 26.77281 38158 ft 399 kts 315°
2026-05-07 06:52 34.07113 26.72326 38159 ft 398 kts 315°
2026-05-07 06:52 34.10842 26.67382 38154 ft 398 kts 315°
2026-05-07 06:53 34.14568 26.62443 38158 ft 398 kts 315°
2026-05-07 06:53 34.18278 26.57519 38158 ft 398 kts 315°
2026-05-07 06:54 34.21998 26.52576 38169 ft 397 kts 314°
2026-05-07 06:54 34.25709 26.47636 38153 ft 395 kts 314°
2026-05-07 06:55 34.29394 26.42724 38153 ft 393 kts 314°
2026-05-07 06:55 34.33038 26.37861 38156 ft 392 kts 314°
2026-05-07 06:56 34.36697 26.32971 38154 ft 391 kts 314°
2026-05-07 06:56 34.40345 26.28089 38156 ft 391 kts 314°
2026-05-07 06:57 34.43989 26.23206 38157 ft 390 kts 314°
2026-05-07 06:57 34.47632 26.18316 38149 ft 390 kts 314°
2026-05-07 06:58 34.51240 26.13468 38145 ft 389 kts 314°
2026-05-07 06:58 34.54865 26.08589 38147 ft 389 kts 314°
2026-05-07 06:59 34.58483 26.03713 38149 ft 389 kts 314°
2026-05-07 06:59 34.62097 25.98835 38146 ft 388 kts 314°
2026-05-07 07:00 34.65708 25.93957 38134 ft 387 kts 313°
2026-05-07 07:00 34.69301 25.89093 38143 ft 386 kts 313°
2026-05-07 07:01 34.72884 25.84236 38140 ft 385 kts 313°
2026-05-07 07:01 34.76458 25.79385 38142 ft 385 kts 313°
2026-05-07 07:02 34.80025 25.74537 38143 ft 385 kts 313°
2026-05-07 07:02 34.83592 25.69681 38143 ft 385 kts 313°
2026-05-07 07:03 34.87154 25.64826 38142 ft 385 kts 313°
2026-05-07 07:03 34.90721 25.59959 38144 ft 385 kts 313°
2026-05-07 07:04 34.94266 25.55114 38143 ft 385 kts 312°
2026-05-07 07:04 34.97835 25.50227 38144 ft 385 kts 312°
2026-05-07 07:05 35.01396 25.45346 38145 ft 385 kts 312°
2026-05-07 07:05 35.04918 25.40513 38143 ft 385 kts 312°
2026-05-07 07:06 35.08481 25.35614 38142 ft 386 kts 312°
2026-05-07 07:06 35.12044 25.30709 38134 ft 386 kts 312°
2026-05-07 07:07 35.15603 25.25803 38128 ft 386 kts 312°
2026-05-07 07:07 35.19160 25.20894 38150 ft 385 kts 312°
2026-05-07 07:08 35.22708 25.15989 38160 ft 385 kts 311°
2026-05-07 07:08 35.26241 25.11097 38152 ft 384 kts 311°
2026-05-07 07:09 35.29770 25.06206 38153 ft 384 kts 311°
2026-05-07 07:09 35.33277 25.01333 38162 ft 383 kts 311°
2026-05-07 07:10 35.36802 24.96433 38154 ft 385 kts 311°
2026-05-07 07:10 35.40351 24.91494 38150 ft 386 kts 311°
2026-05-07 07:11 35.43310 24.87368 38140 ft 387 kts 311°
2026-05-07 07:11 35.46872 24.82394 38143 ft 388 kts 311°
2026-05-07 07:12 35.50433 24.77415 38139 ft 388 kts 311°
2026-05-07 07:12 35.53991 24.72433 38136 ft 388 kts 311°
2026-05-07 07:13 35.57546 24.67448 38144 ft 387 kts 310°
2026-05-07 07:13 35.61092 24.62469 38134 ft 387 kts 310°
2026-05-07 07:14 35.64629 24.57494 38135 ft 386 kts 310°
2026-05-07 07:14 35.68134 24.52557 38136 ft 385 kts 310°
2026-05-07 07:15 35.71655 24.47591 38138 ft 385 kts 310°
2026-05-07 07:15 35.75171 24.42624 38138 ft 385 kts 310°
2026-05-07 07:16 35.78686 24.37653 38132 ft 385 kts 310°
2026-05-07 07:16 35.82202 24.32672 38137 ft 385 kts 310°
2026-05-07 07:17 35.85722 24.27677 38141 ft 386 kts 310°
2026-05-07 07:17 35.89245 24.22671 38142 ft 387 kts 310°
2026-05-07 07:18 35.92770 24.17655 38140 ft 387 kts 310°
2026-05-07 07:18 35.96300 24.12625 38142 ft 387 kts 309°
2026-05-07 07:19 35.99804 24.07624 38138 ft 388 kts 309°
2026-05-07 07:19 36.03330 24.02584 38135 ft 388 kts 309°
2026-05-07 07:20 36.06856 23.97536 38140 ft 388 kts 309°
2026-05-07 07:20 36.10382 23.92482 38139 ft 388 kts 309°
2026-05-07 07:21 36.13906 23.87422 38142 ft 388 kts 309°
2026-05-07 07:21 36.17427 23.82360 38140 ft 388 kts 309°
2026-05-07 07:22 36.20945 23.77294 38152 ft 388 kts 309°
2026-05-07 07:22 36.24462 23.72222 38128 ft 388 kts 309°
2026-05-07 07:23 36.27954 23.67177 38138 ft 388 kts 308°
2026-05-07 07:23 36.31466 23.62096 38136 ft 388 kts 308°
2026-05-07 07:24 36.34981 23.57003 38127 ft 388 kts 308°
2026-05-07 07:24 36.38491 23.51911 38135 ft 388 kts 308°
2026-05-07 07:25 36.43757 23.44256 38129 ft 388 kts 308°
2026-05-07 07:26 36.47264 23.39147 38127 ft 388 kts 308°
2026-05-07 07:26 36.50749 23.34064 38129 ft 389 kts 308°
2026-05-07 07:27 36.54251 23.28948 38145 ft 389 kts 308°
2026-05-07 07:27 36.57757 23.23818 38135 ft 389 kts 308°
2026-05-07 07:28 36.61250 23.18698 38129 ft 389 kts 308°
2026-05-07 07:28 36.64758 23.13549 38130 ft 389 kts 308°
2026-05-07 07:29 36.68250 23.08417 38129 ft 389 kts 307°
2026-05-07 07:29 36.71724 23.03303 38132 ft 389 kts 307°
2026-05-07 07:30 36.75202 22.98174 38133 ft 388 kts 307°
2026-05-07 07:30 36.78698 22.93011 38146 ft 389 kts 307°
2026-05-07 07:31 36.82189 22.87847 38139 ft 389 kts 307°
2026-05-07 07:31 36.85656 22.82711 38149 ft 389 kts 307°
2026-05-07 07:32 36.89148 22.77534 38145 ft 389 kts 306°
2026-05-07 07:32 36.92628 22.72360 38141 ft 389 kts 306°
2026-05-07 07:33 36.96104 22.67186 38147 ft 388 kts 306°
2026-05-07 07:33 36.99572 22.62018 38135 ft 388 kts 306°
2026-05-07 07:34 37.03016 22.56875 38139 ft 387 kts 306°
2026-05-07 07:34 37.06475 22.51702 38141 ft 387 kts 306°
2026-05-07 07:35 37.09928 22.46530 38148 ft 387 kts 306°
2026-05-07 07:35 37.13380 22.41355 38136 ft 387 kts 306°
2026-05-07 07:36 37.16819 22.36188 38139 ft 387 kts 306°
2026-05-07 07:36 37.20269 22.30999 38145 ft 387 kts 306°
2026-05-07 07:37 37.23719 22.25798 38137 ft 387 kts 305°
2026-05-07 07:37 37.27140 22.20634 38144 ft 387 kts 305°
2026-05-07 07:38 37.30583 22.15429 38135 ft 387 kts 305°
2026-05-07 07:38 37.34026 22.10214 38143 ft 387 kts 305°
2026-05-07 07:39 37.37462 22.05006 38123 ft 386 kts 305°
2026-05-07 07:39 37.40886 21.99804 38120 ft 385 kts 304°
2026-05-07 07:40 37.44294 21.94619 38117 ft 385 kts 305°
2026-05-07 07:40 37.47686 21.89455 38138 ft 385 kts 305°
2026-05-07 07:41 37.51098 21.84242 38124 ft 388 kts 304°
2026-05-07 07:41 37.54540 21.78980 38157 ft 390 kts 304°
2026-05-07 07:42 37.58005 21.73676 38122 ft 392 kts 304°
2026-05-07 07:42 37.61474 21.68357 38124 ft 392 kts 304°
2026-05-07 07:43 37.64938 21.63038 38124 ft 392 kts 304°
2026-05-07 07:43 37.68374 21.57753 38132 ft 392 kts 304°
2026-05-07 07:44 37.71823 21.52438 38129 ft 391 kts 304°
2026-05-07 07:44 37.75270 21.47118 38129 ft 391 kts 304°
2026-05-07 07:45 37.78713 21.41796 38130 ft 390 kts 304°
2026-05-07 07:45 37.82131 21.36503 38139 ft 392 kts 304°
2026-05-07 07:46 37.85613 21.31099 38134 ft 395 kts 304°
2026-05-07 07:46 37.89101 21.25678 38136 ft 399 kts 304°
2026-05-07 07:47 37.92582 21.20261 38134 ft 401 kts 304°
2026-05-07 07:47 37.96107 21.14768 38129 ft 402 kts 304°
2026-05-07 07:48 37.99635 21.09261 38126 ft 403 kts 304°
2026-05-07 07:48 38.03162 21.03745 38125 ft 402 kts 304°
2026-05-07 07:49 38.06681 20.98232 38127 ft 402 kts 304°
2026-05-07 07:49 38.10196 20.92718 38124 ft 401 kts 304°
2026-05-07 07:50 38.13702 20.87206 38125 ft 402 kts 304°
2026-05-07 07:50 38.17226 20.81654 38127 ft 405 kts 304°
2026-05-07 07:51 38.20776 20.76052 38131 ft 409 kts 304°
2026-05-07 07:51 38.24353 20.70399 38146 ft 412 kts 304°
2026-05-07 07:52 38.27941 20.64721 38123 ft 415 kts 304°
2026-05-07 07:52 38.31555 20.58991 38120 ft 415 kts 304°
2026-05-07 07:53 38.35169 20.53252 38119 ft 414 kts 304°
2026-05-07 07:53 38.38768 20.47527 38116 ft 412 kts 304°
2026-05-07 07:54 38.42345 20.41826 38119 ft 410 kts 304°
2026-05-07 07:54 38.45903 20.36141 38133 ft 417 kts 304°
2026-05-07 07:55 38.49554 20.30293 38128 ft 424 kts 304°
2026-05-07 07:55 38.53234 20.24397 38122 ft 425 kts 304°
2026-05-07 07:56 38.56923 20.18478 38113 ft 425 kts 304°
2026-05-07 07:56 38.60597 20.12571 38119 ft 424 kts 304°
2026-05-07 07:57 38.64255 20.06679 38116 ft 422 kts 304°
2026-05-07 07:57 38.67885 20.00817 38117 ft 421 kts 304°
2026-05-07 07:58 38.71524 19.94932 38114 ft 420 kts 304°
2026-05-07 07:58 38.75148 19.89059 38128 ft 421 kts 304°
2026-05-07 07:59 38.78177 19.84141 38128 ft 424 kts 304°
2026-05-07 07:59 38.81845 19.78174 38127 ft 427 kts 303°
2026-05-07 08:00 38.85540 19.72155 38117 ft 430 kts 303°
2026-05-07 08:00 38.89252 19.66099 38117 ft 432 kts 303°
2026-05-07 08:01 38.92951 19.60053 38114 ft 433 kts 303°
2026-05-07 08:01 38.96665 19.53969 38110 ft 433 kts 303°
2026-05-07 08:02 39.00372 19.47887 38103 ft 432 kts 303°
2026-05-07 08:02 39.04068 19.41809 38101 ft 431 kts 303°
2026-05-07 08:03 39.07758 19.35730 38099 ft 431 kts 303°
2026-05-07 08:03 39.11439 19.29654 38098 ft 430 kts 303°
2026-05-07 08:04 39.15123 19.23560 38098 ft 430 kts 303°
2026-05-07 08:04 39.18798 19.17470 38098 ft 430 kts 303°
2026-05-07 08:05 39.22448 19.11411 38124 ft 430 kts 303°
2026-05-07 08:05 39.26127 19.05291 38106 ft 431 kts 303°
2026-05-07 08:06 39.29839 18.99197 38107 ft 433 kts 306°
2026-05-07 08:06 39.33873 18.93379 38119 ft 435 kts 307°
2026-05-07 08:07 39.37958 18.87587 38105 ft 436 kts 307°
2026-05-07 08:07 39.42029 18.81785 38103 ft 438 kts 307°
2026-05-07 08:08 39.46094 18.75960 38117 ft 440 kts 307°
2026-05-07 08:08 39.50188 18.70071 38106 ft 441 kts 307°
2026-05-07 08:09 39.54292 18.64154 38106 ft 441 kts 307°
2026-05-07 08:09 39.58399 18.58222 38104 ft 441 kts 307°
2026-05-07 08:10 39.62484 18.52310 38103 ft 440 kts 307°
2026-05-07 08:10 39.66576 18.46377 38110 ft 441 kts 307°
2026-05-07 08:11 39.70643 18.40468 38110 ft 442 kts 307°
2026-05-07 08:11 39.74739 18.34506 38105 ft 443 kts 307°
2026-05-07 08:12 39.78848 18.28514 38101 ft 444 kts 307°
2026-05-07 08:12 39.82949 18.22522 38105 ft 444 kts 307°
2026-05-07 08:13 39.87058 18.16506 38105 ft 445 kts 307°
2026-05-07 08:13 39.91171 18.10473 38111 ft 445 kts 307°
2026-05-07 08:14 39.95284 18.04427 38106 ft 446 kts 307°
2026-05-07 08:14 39.99403 17.98362 38092 ft 447 kts 307°
2026-05-07 08:15 40.03494 17.92324 38101 ft 447 kts 307°
2026-05-07 08:15 40.07612 17.86237 38096 ft 447 kts 307°
2026-05-07 08:16 40.11727 17.80141 38095 ft 447 kts 307°
2026-05-07 08:16 40.15836 17.74042 38121 ft 447 kts 307°
2026-05-07 08:17 40.19948 17.67926 38102 ft 448 kts 307°
2026-05-07 08:17 40.24065 17.61790 38099 ft 449 kts 307°
2026-05-07 08:18 40.28177 17.55648 38088 ft 450 kts 307°
2026-05-07 08:18 40.32309 17.49466 38087 ft 451 kts 307°
2026-05-07 08:19 40.36406 17.43323 38083 ft 452 kts 307°
2026-05-07 08:19 40.40541 17.37112 38086 ft 452 kts 307°
2026-05-07 08:20 40.44681 17.30879 38079 ft 453 kts 307°
2026-05-07 08:20 40.48812 17.24648 38086 ft 454 kts 307°
2026-05-07 08:21 40.52962 17.18373 38086 ft 455 kts 307°
2026-05-07 08:21 40.57047 17.12187 38087 ft 456 kts 307°
2026-05-07 08:22 40.61204 17.05878 38063 ft 456 kts 307°
2026-05-07 08:22 40.65365 16.99549 38048 ft 457 kts 307°
2026-05-07 08:23 40.69491 16.93262 38052 ft 456 kts 307°
2026-05-07 08:23 40.73631 16.86940 38071 ft 455 kts 307°
2026-05-07 08:24 40.77774 16.80599 38077 ft 456 kts 307°
2026-05-07 08:24 40.81916 16.74245 38060 ft 457 kts 307°
2026-05-07 08:25 40.86059 16.67879 38064 ft 457 kts 307°
2026-05-07 08:25 40.90198 16.61505 38047 ft 458 kts 307°
2026-05-07 08:26 40.96385 16.51952 38051 ft 457 kts 307°
2026-05-07 08:26 41.00525 16.45543 38049 ft 457 kts 307°
2026-05-07 08:27 41.04655 16.39136 38054 ft 459 kts 306°
2026-05-07 08:27 41.08803 16.32685 38056 ft 460 kts 306°
2026-05-07 08:28 41.12926 16.26260 38038 ft 460 kts 306°
2026-05-07 08:28 41.17080 16.19776 38030 ft 460 kts 306°
2026-05-07 08:29 41.21224 16.13293 38033 ft 460 kts 306°
2026-05-07 08:29 41.25334 16.06848 38030 ft 460 kts 306°
2026-05-07 08:30 41.29472 16.00345 38041 ft 460 kts 306°
2026-05-07 08:30 41.33601 15.93841 38039 ft 461 kts 306°
2026-05-07 08:31 41.37736 15.87315 38020 ft 460 kts 306°
2026-05-07 08:31 41.41858 15.80798 38014 ft 459 kts 306°
2026-05-07 08:32 41.45967 15.74285 38017 ft 458 kts 306°
2026-05-07 08:32 41.50055 15.67792 38025 ft 458 kts 306°
2026-05-07 08:33 41.54079 15.61386 38037 ft 457 kts 306°
2026-05-07 08:33 41.58167 15.54864 38025 ft 457 kts 306°
2026-05-07 08:34 41.62246 15.48341 38020 ft 457 kts 306°
2026-05-07 08:34 41.66323 15.41809 38022 ft 457 kts 306°
2026-05-07 08:35 41.70397 15.35267 38022 ft 457 kts 306°
2026-05-07 08:35 41.74470 15.28714 38035 ft 458 kts 306°
2026-05-07 08:36 41.78534 15.22160 38027 ft 457 kts 305°
2026-05-07 08:36 41.82588 15.15609 38015 ft 456 kts 305°
2026-05-07 08:37 41.86634 15.09054 38018 ft 455 kts 305°
2026-05-07 08:37 41.90636 15.02557 38024 ft 455 kts 305°
2026-05-07 08:38 41.94666 14.96001 38018 ft 454 kts 305°
2026-05-07 08:38 41.98687 14.89445 38030 ft 454 kts 305°
2026-05-07 08:39 42.02699 14.82889 38021 ft 454 kts 305°
2026-05-07 08:39 42.06706 14.76329 38038 ft 453 kts 305°
2026-05-07 08:40 42.10698 14.69776 38016 ft 453 kts 305°
2026-05-07 08:40 42.14693 14.63205 38020 ft 453 kts 305°
2026-05-07 08:41 42.18682 14.56629 38029 ft 453 kts 305°
2026-05-07 08:41 42.22647 14.50078 38023 ft 454 kts 304°
2026-05-07 08:42 42.26641 14.43465 38029 ft 454 kts 304°
2026-05-07 08:42 42.30617 14.36867 38020 ft 455 kts 304°
2026-05-07 08:43 42.34607 14.30232 38029 ft 455 kts 304°
2026-05-07 08:43 42.38602 14.23574 38024 ft 456 kts 304°
2026-05-07 08:44 42.42592 14.16909 38030 ft 457 kts 304°
2026-05-07 08:44 42.46574 14.10242 38021 ft 456 kts 304°
2026-05-07 08:45 42.50546 14.03577 38026 ft 455 kts 304°
2026-05-07 08:45 42.54479 13.96965 38005 ft 454 kts 304°
2026-05-07 08:46 42.58427 13.90308 38048 ft 453 kts 304°
2026-05-07 08:46 42.62379 13.83633 38036 ft 454 kts 303°
2026-05-07 08:47 42.66334 13.76936 38032 ft 455 kts 303°
2026-05-07 08:47 42.69627 13.71347 38021 ft 456 kts 303°
2026-05-07 08:48 42.73591 13.64608 38017 ft 457 kts 303°
2026-05-07 08:48 42.77560 13.57845 38031 ft 457 kts 303°
2026-05-07 08:49 42.81516 13.51089 38011 ft 457 kts 303°
2026-05-07 08:49 42.85469 13.44323 38031 ft 457 kts 303°
2026-05-07 08:50 42.89397 13.37583 38019 ft 456 kts 303°
2026-05-07 08:50 42.93344 13.30795 38014 ft 456 kts 303°
2026-05-07 08:51 42.97282 13.24008 38029 ft 456 kts 303°
2026-05-07 08:51 43.01228 13.17191 38015 ft 457 kts 303°
2026-05-07 08:52 43.05163 13.10379 38031 ft 457 kts 302°
2026-05-07 08:52 43.09096 13.03551 38038 ft 457 kts 303°
2026-05-07 08:53 43.12994 12.96769 38037 ft 456 kts 302°
2026-05-07 08:53 43.16917 12.89928 38036 ft 456 kts 302°
2026-05-07 08:54 43.20814 12.83118 38029 ft 457 kts 302°
2026-05-07 08:54 43.24724 12.76270 38061 ft 457 kts 302°
2026-05-07 08:55 43.28645 12.69382 38038 ft 458 kts 302°
2026-05-07 08:55 43.32555 12.62502 38035 ft 458 kts 302°
2026-05-07 08:56 43.36452 12.55625 38033 ft 459 kts 302°
2026-05-07 08:56 43.40375 12.48691 38014 ft 460 kts 302°
2026-05-07 08:57 43.44293 12.41747 38027 ft 460 kts 302°
2026-05-07 08:57 43.48184 12.34837 38022 ft 459 kts 302°
2026-05-07 08:58 43.52088 12.27884 38013 ft 459 kts 302°
2026-05-07 08:58 43.55987 12.20924 38038 ft 458 kts 302°
2026-05-07 08:59 43.59874 12.13968 38027 ft 458 kts 302°
2026-05-07 08:59 43.63763 12.06990 38021 ft 459 kts 302°
2026-05-07 09:00 43.67659 11.99985 38021 ft 460 kts 302°
2026-05-07 09:00 43.71557 11.92960 38028 ft 461 kts 302°
2026-05-07 09:01 43.75433 11.85958 38027 ft 462 kts 302°
2026-05-07 09:01 43.79342 11.78879 38028 ft 463 kts 302°
2026-05-07 09:02 43.83253 11.71780 38036 ft 464 kts 302°
2026-05-07 09:02 43.87167 11.64657 38039 ft 465 kts 302°
2026-05-07 09:03 43.91085 11.57510 38020 ft 465 kts 302°
2026-05-07 09:03 43.94993 11.50366 38021 ft 464 kts 302°
2026-05-07 09:04 43.98886 11.43231 38022 ft 463 kts 302°
2026-05-07 09:04 44.02733 11.36161 38021 ft 462 kts 302°
2026-05-07 09:05 44.06605 11.29027 38029 ft 462 kts 302°
2026-05-07 09:05 44.10453 11.21920 38024 ft 463 kts 302°
2026-05-07 09:06 44.14323 11.14755 38026 ft 464 kts 302°
2026-05-07 09:06 44.18206 11.07549 38013 ft 465 kts 302°
2026-05-07 09:07 44.22087 11.00328 38001 ft 465 kts 302°
2026-05-07 09:07 44.25962 10.93103 38004 ft 465 kts 302°
2026-05-07 09:08 44.29829 10.85875 38007 ft 464 kts 302°
2026-05-07 09:08 44.33684 10.78647 38014 ft 464 kts 302°
2026-05-07 09:09 44.37508 10.71463 38003 ft 464 kts 302°
2026-05-07 09:09 44.41345 10.64234 38015 ft 464 kts 302°
2026-05-07 09:10 44.45188 10.56976 38042 ft 464 kts 302°
2026-05-07 09:10 44.49036 10.49689 38014 ft 465 kts 302°
2026-05-07 09:11 44.52883 10.42388 38012 ft 466 kts 302°
2026-05-07 09:11 44.56732 10.35064 38001 ft 466 kts 302°
2026-05-07 09:12 44.60571 10.27744 37994 ft 465 kts 302°
2026-05-07 09:12 44.64374 10.20470 38018 ft 465 kts 301°
2026-05-07 09:13 44.68196 10.13143 37993 ft 464 kts 301°
2026-05-07 09:13 44.72001 10.05830 37995 ft 462 kts 301°
2026-05-07 09:14 44.75795 9.98516 38019 ft 462 kts 301°
2026-05-07 09:14 44.79581 9.91201 38002 ft 462 kts 301°
2026-05-07 09:15 44.83363 9.83874 37997 ft 463 kts 301°
2026-05-07 09:15 44.87128 9.76563 37987 ft 463 kts 301°
2026-05-07 09:16 44.90914 9.69192 38000 ft 464 kts 301°
2026-05-07 09:16 44.94698 9.61807 37998 ft 465 kts 301°
2026-05-07 09:17 44.98485 9.54396 37999 ft 465 kts 301°
2026-05-07 09:17 45.02272 9.46966 38007 ft 466 kts 301°
2026-05-07 09:18 45.06049 9.39536 37999 ft 467 kts 301°
2026-05-07 09:18 45.09834 9.32072 38001 ft 467 kts 301°
2026-05-07 09:19 45.13619 9.24588 38022 ft 466 kts 302°
2026-05-07 09:19 45.17365 9.17161 38010 ft 466 kts 302°
2026-05-07 09:20 45.21129 9.09679 38010 ft 465 kts 301°
2026-05-07 09:20 45.24861 9.02243 38017 ft 465 kts 301°
2026-05-07 09:21 45.28598 8.94774 37995 ft 465 kts 301°
2026-05-07 09:21 45.32339 8.87280 38000 ft 465 kts 301°
2026-05-07 09:22 45.36079 8.79766 37996 ft 465 kts 301°
2026-05-07 09:22 45.39791 8.72291 37994 ft 465 kts 301°
2026-05-07 09:23 45.43523 8.64753 37992 ft 465 kts 301°
2026-05-07 09:23 45.47253 8.57201 38043 ft 466 kts 302°
2026-05-07 09:24 45.50982 8.49631 38029 ft 467 kts 302°
2026-05-07 09:24 45.54713 8.42036 38008 ft 467 kts 302°
2026-05-07 09:25 45.58414 8.34483 38009 ft 467 kts 302°
2026-05-07 09:25 45.62133 8.26874 38005 ft 467 kts 302°
2026-05-07 09:26 45.65847 8.19252 38025 ft 466 kts 302°
2026-05-07 09:26 45.69541 8.11651 38018 ft 465 kts 302°
2026-05-07 09:27 45.73226 8.04051 38018 ft 463 kts 301°
2026-05-07 09:28 45.78684 7.92750 38039 ft 458 kts 301°
2026-05-07 09:28 45.82319 7.85205 38049 ft 460 kts 301°
2026-05-07 09:29 45.85954 7.77631 38037 ft 462 kts 301°
2026-05-07 09:29 45.89580 7.70060 38036 ft 464 kts 301°
2026-05-07 09:30 45.93233 7.62413 38040 ft 465 kts 301°
2026-05-07 09:30 45.96892 7.54755 38013 ft 465 kts 303°
2026-05-07 09:31 46.00863 7.47412 38012 ft 466 kts 306°
2026-05-07 09:31 46.04922 7.40165 38046 ft 467 kts 306°
2026-05-07 09:32 46.08980 7.32867 38035 ft 468 kts 305°
2026-05-07 09:32 46.13027 7.25531 38025 ft 468 kts 305°
2026-05-07 09:33 46.16392 7.19405 38033 ft 469 kts 305°
2026-05-07 09:33 46.21087 7.10840 38023 ft 468 kts 305°
2026-05-07 09:34 46.25118 7.03455 38046 ft 468 kts 305°
2026-05-07 09:34 46.28478 6.97292 38024 ft 470 kts 305°
2026-05-07 09:35 46.32532 6.89842 38021 ft 472 kts 305°
2026-05-07 09:35 46.36587 6.82366 38024 ft 472 kts 305°
2026-05-07 09:36 46.40636 6.74880 38033 ft 471 kts 305°
2026-05-07 09:36 46.44624 6.67313 38030 ft 471 kts 302°
2026-05-07 09:37 46.47954 6.59177 38031 ft 469 kts 297°
2026-05-07 09:37 46.51137 6.50986 38022 ft 469 kts 297°
2026-05-07 09:38 46.54362 6.42734 38026 ft 469 kts 297°
2026-05-07 09:38 46.57601 6.34491 38023 ft 469 kts 297°
2026-05-07 09:39 46.60836 6.26249 38033 ft 469 kts 297°
2026-05-07 09:39 46.64052 6.18028 38026 ft 469 kts 297°
2026-05-07 09:40 46.67272 6.09768 38036 ft 469 kts 297°
2026-05-07 09:40 46.70481 6.01510 38033 ft 468 kts 297°
2026-05-07 09:41 46.73682 5.93248 38043 ft 468 kts 297°
2026-05-07 09:41 46.76878 5.84976 38037 ft 468 kts 297°
2026-05-07 09:42 46.80201 5.76833 38038 ft 469 kts 305°
2026-05-07 09:42 46.84839 5.70173 38057 ft 474 kts 321°
2026-05-07 09:43 46.90559 5.65251 38054 ft 478 kts 329°
2026-05-07 09:43 46.96447 5.60687 38050 ft 478 kts 329°
2026-05-07 09:44 47.02302 5.56051 38044 ft 478 kts 328°
2026-05-07 09:44 47.08131 5.51346 38046 ft 478 kts 328°
2026-05-07 09:45 47.13922 5.46643 38057 ft 479 kts 328°
2026-05-07 09:45 47.19753 5.41903 38058 ft 479 kts 328°
2026-05-07 09:46 47.25588 5.37151 38061 ft 479 kts 328°
2026-05-07 09:46 47.31420 5.32393 38047 ft 479 kts 329°
2026-05-07 09:47 47.37257 5.27639 38050 ft 479 kts 329°
2026-05-07 09:47 47.43093 5.22876 38045 ft 479 kts 329°
2026-05-07 09:48 47.48918 5.18106 38053 ft 479 kts 329°
2026-05-07 09:48 47.54745 5.13321 38047 ft 479 kts 329°
2026-05-07 09:49 47.60481 5.08315 38039 ft 476 kts 321°
2026-05-07 09:49 47.65438 5.01926 38048 ft 475 kts 316°
2026-05-07 09:50 47.70411 4.95396 38072 ft 482 kts 317°
2026-05-07 09:50 47.75575 4.88892 38055 ft 487 kts 318°
2026-05-07 09:51 47.80665 4.82461 38038 ft 473 kts 317°
2026-05-07 09:51 47.85632 4.76145 38052 ft 473 kts 317°
2026-05-07 09:52 47.90639 4.69757 38049 ft 475 kts 317°
2026-05-07 09:52 47.95664 4.63334 38053 ft 476 kts 317°
2026-05-07 09:53 48.00698 4.56885 38052 ft 477 kts 317°
2026-05-07 09:53 48.05728 4.50422 38054 ft 478 kts 317°
2026-05-07 09:54 48.10742 4.43964 38052 ft 478 kts 317°
2026-05-07 09:54 48.15779 4.37457 38065 ft 478 kts 317°
2026-05-07 09:55 48.20760 4.31006 38057 ft 478 kts 317°
2026-05-07 09:55 48.25776 4.24490 38072 ft 477 kts 317°
2026-05-07 09:56 48.30172 4.17098 38079 ft 473 kts 306°
2026-05-07 09:56 48.34101 4.09524 38060 ft 450 kts 307°
2026-05-07 09:57 48.38026 4.02349 38075 ft 443 kts 308°
2026-05-07 09:57 48.41956 3.95174 38074 ft 444 kts 308°
2026-05-07 09:58 48.45887 3.87958 38075 ft 446 kts 308°
2026-05-07 09:58 48.49823 3.80707 38054 ft 447 kts 308°
2026-05-07 09:59 48.53758 3.73438 38058 ft 447 kts 307°
2026-05-07 09:59 48.57221 3.65692 38055 ft 445 kts 300°
2026-05-07 10:00 48.60525 3.57908 38045 ft 444 kts 308°
2026-05-07 10:00 48.62763 3.54701 38044 ft 446 kts 325°
2026-05-07 10:00 48.65446 3.52365 38069 ft 445 kts 330°
2026-05-07 10:01 48.70883 3.47851 38039 ft 440 kts 329°
2026-05-07 10:01 48.76152 3.43294 38038 ft 433 kts 328°
2026-05-07 10:02 48.81353 3.38739 38055 ft 430 kts 328°
2026-05-07 10:02 48.86541 3.34193 38062 ft 430 kts 328°
2026-05-07 10:03 48.91726 3.29643 38062 ft 430 kts 328°
2026-05-07 10:03 48.94204 3.27221 38046 ft 427 kts 317°
2026-05-07 10:03 48.96156 3.23906 38060 ft 423 kts 300°
2026-05-07 10:04 48.98844 3.16016 38068 ft 424 kts 295°
2026-05-07 10:04 49.01513 3.08115 38040 ft 408 kts 296°
2026-05-07 10:04 49.02784 3.04433 37985 ft 396 kts 296°
2026-05-07 10:05 49.04051 3.00772 37802 ft 386 kts 297°
2026-05-07 10:05 49.05520 2.97369 37400 ft 384 kts 308°
2026-05-07 10:05 49.07391 2.94484 36929 ft 384 kts 320°
2026-05-07 10:05 49.09572 2.92162 36527 ft 382 kts 327°
2026-05-07 10:06 49.11879 2.90186 36168 ft 379 kts 334°
2026-05-07 10:06 49.14365 2.88850 35796 ft 378 kts 346°
2026-05-07 10:06 49.16967 2.88341 35440 ft 376 kts 358°
2026-05-07 10:06 49.19569 2.88723 35082 ft 375 kts 12°
2026-05-07 10:07 49.22033 2.90017 34715 ft 375 kts 26°
2026-05-07 10:07 49.24189 2.92159 34349 ft 374 kts 40°
2026-05-07 10:07 49.25933 2.95085 33980 ft 372 kts 54°
2026-05-07 10:07 49.27296 2.98433 33592 ft 369 kts 60°
2026-05-07 10:08 49.28524 3.01867 33199 ft 366 kts 61°
2026-05-07 10:08 49.29707 3.05308 32811 ft 364 kts 62°
2026-05-07 10:08 49.30861 3.08694 32317 ft 364 kts 62°
2026-05-07 10:08 49.32050 3.12199 31761 ft 367 kts 62°
2026-05-07 10:09 49.33207 3.15632 31269 ft 368 kts 62°
2026-05-07 10:09 49.34322 3.19162 30729 ft 370 kts 69°
2026-05-07 10:09 49.34910 3.23003 30215 ft 372 kts 85°
2026-05-07 10:09 49.34829 3.26961 29534 ft 376 kts 100°
2026-05-07 10:10 49.34125 3.30859 28719 ft 383 kts 112°
2026-05-07 10:10 49.33065 3.34596 28326 ft 379 kts 116°
2026-05-07 10:10 49.31936 3.38203 28087 ft 370 kts 116°
2026-05-07 10:10 49.30821 3.41683 28057 ft 357 kts 117°
2026-05-07 10:11 49.29736 3.45050 27811 ft 351 kts 117°
2026-05-07 10:11 49.28554 3.48349 27051 ft 357 kts 126°
2026-05-07 10:11 49.26910 3.51248 26300 ft 364 kts 137°
2026-05-07 10:11 49.25001 3.53849 25596 ft 372 kts 141°
2026-05-07 10:12 49.22996 3.56418 24845 ft 379 kts 142°
2026-05-07 10:12 49.20968 3.58991 24155 ft 386 kts 142°
2026-05-07 10:12 49.18896 3.61613 23430 ft 387 kts 142°
2026-05-07 10:12 49.16834 3.64215 22589 ft 381 kts 142°
2026-05-07 10:13 49.14795 3.66779 21772 ft 375 kts 142°
2026-05-07 10:13 49.12791 3.69286 21000 ft 370 kts 142°
2026-05-07 10:13 49.10803 3.71758 20232 ft 365 kts 143°
2026-05-07 10:13 49.08713 3.73909 19473 ft 360 kts 151°
2026-05-07 10:14 49.06558 3.75706 18763 ft 355 kts 153°
2026-05-07 10:14 49.04360 3.77434 18017 ft 352 kts 154°
2026-05-07 10:14 49.02189 3.79110 17218 ft 348 kts 155°
2026-05-07 10:14 48.99929 3.80080 16764 ft 330 kts 181°
2026-05-07 10:15 48.97822 3.79347 16572 ft 304 kts 211°
2026-05-07 10:15 48.96213 3.77470 16453 ft 281 kts 224°
2026-05-07 10:15 48.94869 3.75430 16321 ft 266 kts 230°
2026-05-07 10:15 48.93811 3.73215 16199 ft 253 kts 247°
2026-05-07 10:16 48.93546 3.70672 16023 ft 241 kts 274°
2026-05-07 10:16 48.93665 3.68143 15589 ft 241 kts 274°
2026-05-07 10:16 48.93773 3.65562 14862 ft 249 kts 274°
2026-05-07 10:16 48.93878 3.62888 14154 ft 256 kts 273°
2026-05-07 10:17 48.93979 3.60182 13421 ft 262 kts 273°
2026-05-07 10:17 48.94081 3.57350 12639 ft 267 kts 273°
2026-05-07 10:17 48.94178 3.54543 11889 ft 272 kts 272°
2026-05-07 10:17 48.94275 3.51649 11144 ft 275 kts 272°
2026-05-07 10:18 48.94371 3.48732 10408 ft 278 kts 272°
2026-05-07 10:18 48.94465 3.45792 9671 ft 279 kts 272°
2026-05-07 10:18 48.94560 3.42829 8896 ft 281 kts 271°
2026-05-07 10:18 48.94653 3.39906 8581 ft 271 kts 271°
2026-05-07 10:19 48.94743 3.37089 8240 ft 260 kts 271°
2026-05-07 10:19 48.94827 3.34360 8194 ft 257 kts 271°
2026-05-07 10:19 48.94908 3.31647 8176 ft 256 kts 271°
2026-05-07 10:19 48.94988 3.28954 8164 ft 254 kts 271°
2026-05-07 10:20 48.95184 3.26300 8125 ft 253 kts 287°
2026-05-07 10:20 48.95951 3.23911 8110 ft 248 kts 298°
2026-05-07 10:20 48.96504 3.22403 8060 ft 245 kts 297°
2026-05-07 10:20 48.97307 3.20154 8011 ft 239 kts 297°
2026-05-07 10:21 48.98087 3.17943 7982 ft 235 kts 297°
2026-05-07 10:21 48.99096 3.15062 7941 ft 232 kts 296°
2026-05-07 10:21 48.99608 3.13592 7942 ft 232 kts 296°
2026-05-07 10:21 49.00350 3.11463 7842 ft 223 kts 296°
2026-05-07 10:22 49.01071 3.09388 7385 ft 223 kts 296°
2026-05-07 10:22 49.01803 3.07275 6816 ft 228 kts 297°
2026-05-07 10:22 49.02550 3.05114 6254 ft 233 kts 297°
2026-05-07 10:22 49.03287 3.02980 6198 ft 222 kts 297°
2026-05-07 10:23 49.03991 3.00939 5986 ft 213 kts 297°
2026-05-07 10:23 49.04580 2.98965 5825 ft 198 kts 282°
2026-05-07 10:23 49.04684 2.96906 5501 ft 194 kts 270°
2026-05-07 10:23 49.04674 2.94843 5112 ft 196 kts 267°
2026-05-07 10:24 49.04606 2.92827 4977 ft 183 kts 266°
2026-05-07 10:24 49.04516 2.90866 4937 ft 189 kts 265°
2026-05-07 10:24 49.04413 2.88854 4671 ft 189 kts 265°
2026-05-07 10:24 49.04311 2.86914 4414 ft 183 kts 265°
2026-05-07 10:25 49.04209 2.85008 4159 ft 178 kts 265°
2026-05-07 10:25 49.04109 2.83126 3925 ft 179 kts 265°
2026-05-07 10:25 49.04006 2.81208 3708 ft 182 kts 265°
2026-05-07 10:25 49.03904 2.79300 3462 ft 179 kts 265°
2026-05-07 10:26 49.03803 2.77423 3208 ft 177 kts 266°
2026-05-07 10:26 49.03704 2.75549 2969 ft 178 kts 266°
2026-05-07 10:26 49.03604 2.73681 2724 ft 175 kts 266°
2026-05-07 10:26 49.03507 2.71875 2503 ft 164 kts 266°
2026-05-07 10:27 49.03419 2.70214 2262 ft 149 kts 266°
2026-05-07 10:27 49.03339 2.68724 2090 ft 137 kts 266°
2026-05-07 10:27 49.03260 2.67248 1898 ft 140 kts 266°
2026-05-07 10:27 49.03184 2.65800 1713 ft 138 kts 266°
2026-05-07 10:28 49.03105 2.64350 1508 ft 137 kts 266°
2026-05-07 10:28 49.03032 2.62901 1327 ft 137 kts 266°
2026-05-07 10:28 49.02948 2.61446 1120 ft 138 kts 265°
2026-05-07 10:28 49.02871 2.59991 938 ft 137 kts 267°
2026-05-07 10:29 49.02799 2.58540 721 ft 138 kts 266°
2026-05-07 10:29 49.02718 2.57095 513 ft 136 kts 266°
2026-05-07 10:29 49.02639 2.55646 382 ft 140 kts 267°
2026-05-07 10:30 49.02516 2.53280 363 ft 68 kts 265°
2026-05-07 10:30 49.02490 2.52802 357 ft 35 kts 265°
2026-05-07 10:30 49.02451 2.52538 367 ft 22 kts 226°
2026-05-07 10:30 49.02347 2.52417 366 ft 16 kts 215°
2026-05-07 10:31 49.02255 2.52325 365 ft 16 kts 201°
2026-05-07 10:31 49.02143 2.52324 362 ft 16 kts 175°
2026-05-07 10:31 49.02029 2.52339 365 ft 17 kts 175°
2026-05-07 10:31 49.01913 2.52355 362 ft 17 kts 175°
2026-05-07 10:32 49.01797 2.52366 359 ft 16 kts 176°
2026-05-07 10:32 49.01724 2.52450 366 ft 14 kts 97°
2026-05-07 10:32 49.01728 2.52597 363 ft 14 kts 85°
2026-05-07 10:32 49.01736 2.52754 362 ft 15 kts 85°
2026-05-07 10:33 49.01745 2.52913 368 ft 15 kts 85°
2026-05-07 10:33 49.01754 2.53072 365 ft 15 kts 85°
2026-05-07 10:33 49.01758 2.53170 366 ft 8 kts 87°
2026-05-07 10:33 49.01762 2.53271 360 ft 10 kts 85°
2026-05-07 10:34 49.01770 2.53392 360 ft 15 kts 84°
2026-05-07 10:34 49.01780 2.53574 361 ft 18 kts 86°
2026-05-07 10:34 49.01791 2.53764 365 ft 18 kts 85°
2026-05-07 10:34 49.01802 2.53948 364 ft 17 kts 84°
2026-05-07 10:35 49.01811 2.54106 364 ft 14 kts 86°
2026-05-07 10:35 49.01816 2.54210 366 ft 10 kts 83°
2026-05-07 10:35 49.01809 2.54286 368 ft 4 kts 148°
2026-05-07 10:35 49.01780 2.54273 366 ft 5 kts 212°
2026-05-07 10:36 49.01752 2.54232 367 ft 6 kts 226°
2026-05-07 10:36 49.01734 2.54203 365 ft 2 kts 227°
2026-05-07 10:36 49.01728 2.54194 368 ft 0 kts 228°